When you browse on this site, cookies collect data to enhance your experience and personalize the content and advertising you see.
Visit our Privacy Policy to learn more. By continuing to use the site, you agree to this use of cookies and data.
  • en Suisse
  • Liste des pays
  • À 7 jours
  • Température de l'eau
  • Carte satellitaire
  • Carte météo
  • Widgets météo
  • user-avatar
    Se connecter

    Météo par heure à Eldoret

    Ce jour, 23 Janvier, Mercredi

    Heure Température Précipitation Vent Pression Humidité
    00:00 +16°C° 0 mm 2 m/s 597 mmHg 57%
    01:00 +15°C° 0 mm 2 m/s 596 mmHg 63%
    02:00 +15°C° 0 mm 2 m/s 596 mmHg 66%
    03:00 +15°C° 0 mm 2 m/s 596 mmHg 69%
    04:00 +14°C° 0 mm 2 m/s 596 mmHg 71%
    05:00 +14°C° 0 mm 2 m/s 596 mmHg 73%
    06:00 +16°C° 0 mm 2 m/s 597 mmHg 66%
    07:00 +19°C° 0 mm 2 m/s 598 mmHg 58%
    08:00 +21°C° 0 mm 2 m/s 599 mmHg 50%
    09:00 +24°C° 0 mm 2 m/s 600 mmHg 43%
    10:00 +26°C° 0 mm 2 m/s 600 mmHg 36%
    11:00 +28°C° 0 mm 2 m/s 600 mmHg 29%
    12:00 +27°C° 0 mm 2 m/s 600 mmHg 33%
    13:00 +26°C° 0 mm 2 m/s 599 mmHg 36%
    14:00 +24°C° 0 mm 2 m/s 598 mmHg 40%
    15:00 +23°C° 0 mm 1 m/s 597 mmHg 45%
    16:00 +22°C° 0 mm 1 m/s 597 mmHg 50%
    17:00 +21°C° 0 mm 1 m/s 596 mmHg 56%
    18:00 +21°C° 0.2 mm 1 m/s 596 mmHg 62%
    19:00 +20°C° 0.2 mm 1 m/s 597 mmHg 69%
    20:00 +19°C° 0.2 mm 1 m/s 597 mmHg 76%
    21:00 +18°C° 0.3 mm 1 m/s 597 mmHg 77%
    22:00 +18°C° 0.3 mm 1 m/s 597 mmHg 79%
    23:00 +16°C° 0.3 mm 1 m/s 597 mmHg 81%

    Demain, 24 Janvier, Jeudi

    Heure Température Précipitation Vent Pression Humidité
    00:00 +16°C° 0 mm 2 m/s 597 mmHg 82%
    01:00 +15°C° 0 mm 2 m/s 596 mmHg 84%
    02:00 +15°C° 0 mm 2 m/s 596 mmHg 86%
    03:00 +15°C° 0 mm 2 m/s 596 mmHg 85%
    04:00 +13°C° 0 mm 3 m/s 596 mmHg 84%
    05:00 +13°C° 0 mm 3 m/s 596 mmHg 84%
    06:00 +16°C° 0 mm 3 m/s 597 mmHg 72%
    07:00 +18°C° 0 mm 3 m/s 598 mmHg 61%
    08:00 +20°C° 0 mm 4 m/s 599 mmHg 49%
    09:00 +22°C° 0 mm 3 m/s 600 mmHg 41%
    10:00 +25°C° 0 mm 3 m/s 600 mmHg 32%
    11:00 +28°C° 0 mm 3 m/s 601 mmHg 24%
    12:00 +28°C° 0 mm 3 m/s 601 mmHg 23%
    13:00 +29°C° 0 mm 2 m/s 600 mmHg 22%
    14:00 +30°C° 0 mm 2 m/s 600 mmHg 21%
    15:00 +28°C° 0 mm 2 m/s 599 mmHg 27%
    16:00 +26°C° 0 mm 2 m/s 598 mmHg 33%
    17:00 +24°C° 0 mm 2 m/s 597 mmHg 39%
    18:00 +23°C° 0.2 mm 1 m/s 597 mmHg 45%
    19:00 +21°C° 0.2 mm 1 m/s 598 mmHg 51%
    20:00 +20°C° 0.2 mm 1 m/s 598 mmHg 58%
    21:00 +19°C° 0 mm 1 m/s 598 mmHg 57%
    22:00 +17°C° 0 mm 2 m/s 598 mmHg 57%
    23:00 +16°C° 0 mm 2 m/s 598 mmHg 57%

    Après-demain, 25 Janvier, Vendredi

    Heure Température Précipitation Vent Pression Humidité
    00:00 +16°C° 0 mm 2 m/s 597 mmHg 60%
    01:00 +16°C° 0 mm 3 m/s 597 mmHg 62%
    02:00 +14°C° 0 mm 3 m/s 596 mmHg 64%
    03:00 +14°C° 0 mm 3 m/s 596 mmHg 62%
    04:00 +14°C° 0 mm 3 m/s 597 mmHg 59%
    05:00 +14°C° 0 mm 3 m/s 597 mmHg 56%
    06:00 +17°C° 0 mm 4 m/s 598 mmHg 49%
    07:00 +19°C° 0 mm 4 m/s 599 mmHg 41%
    08:00 +21°C° 0 mm 4 m/s 600 mmHg 33%
    09:00 +23°C° 0 mm 4 m/s 601 mmHg 28%
    10:00 +26°C° 0 mm 4 m/s 601 mmHg 22%
    11:00 +29°C° 0 mm 4 m/s 602 mmHg 17%
    12:00 +29°C° 0 mm 4 m/s 601 mmHg 16%
    13:00 +30°C° 0 mm 4 m/s 600 mmHg 15%
    14:00 +30°C° 0 mm 4 m/s 600 mmHg 14%
    15:00 +29°C° 0 mm 3 m/s 599 mmHg 19%
    16:00 +28°C° 0 mm 3 m/s 599 mmHg 23%
    17:00 +26°C° 0 mm 3 m/s 598 mmHg 27%
    18:00 +24°C° 0 mm 2 m/s 598 mmHg 36%
    19:00 +21°C° 0 mm 2 m/s 598 mmHg 44%
    20:00 +19°C° 0 mm 1 m/s 598 mmHg 53%
    21:00 +18°C° 0 mm 2 m/s 598 mmHg 53%
    22:00 +17°C° 0 mm 2 m/s 598 mmHg 52%
    23:00 +16°C° 0 mm 2 m/s 598 mmHg 52%

    26 Janvier, Samedi

    Heure Température Précipitation Vent Pression Humidité
    00:00 +16°C° 0 mm 3 m/s 597 mmHg 56%
    01:00 +16°C° 0 mm 3 m/s 597 mmHg 60%
    02:00 +16°C° 0 mm 3 m/s 596 mmHg 63%
    03:00 +14°C° 0 mm 3 m/s 596 mmHg 62%
    04:00 +14°C° 0 mm 3 m/s 596 mmHg 60%
    05:00 +14°C° 0 mm 3 m/s 596 mmHg 59%
    06:00 +17°C° 0 mm 3 m/s 598 mmHg 51%
    07:00 +19°C° 0 mm 3 m/s 599 mmHg 43%
    08:00 +21°C° 0 mm 4 m/s 600 mmHg 35%
    09:00 +25°C° 0 mm 3 m/s 601 mmHg 30%
    10:00 +27°C° 0 mm 3 m/s 601 mmHg 25%
    11:00 +29°C° 0 mm 3 m/s 602 mmHg 19%
    12:00 +30°C° 0 mm 3 m/s 601 mmHg 19%
    13:00 +30°C° 0 mm 3 m/s 601 mmHg 18%
    14:00 +30°C° 0 mm 3 m/s 600 mmHg 18%
    15:00 +28°C° 0 mm 3 m/s 599 mmHg 24%
    16:00 +27°C° 0 mm 3 m/s 599 mmHg 31%
    17:00 +25°C° 0 mm 2 m/s 598 mmHg 38%
    18:00 +23°C° 0.4 mm 2 m/s 598 mmHg 48%
    19:00 +21°C° 0.4 mm 1 m/s 598 mmHg 57%
    20:00 +19°C° 0.4 mm 1 m/s 598 mmHg 67%
    21:00 +18°C° 0 mm 1 m/s 598 mmHg 65%
    22:00 +16°C° 0 mm 2 m/s 598 mmHg 64%
    23:00 +16°C° 0 mm 2 m/s 598 mmHg 62%

    27 Janvier, Dimanche

    Heure Température Précipitation Vent Pression Humidité
    00:00 +16°C° 0 mm 3 m/s 597 mmHg 66%
    01:00 +14°C° 0 mm 3 m/s 597 mmHg 69%
    02:00 +14°C° 0 mm 3 m/s 596 mmHg 72%
    03:00 +14°C° 0 mm 3 m/s 596 mmHg 71%
    04:00 +14°C° 0 mm 3 m/s 597 mmHg 69%
    05:00 +14°C° 0 mm 4 m/s 597 mmHg 68%
    06:00 +17°C° 0 mm 4 m/s 598 mmHg 59%
    07:00 +19°C° 0 mm 4 m/s 599 mmHg 49%
    08:00 +21°C° 0 mm 4 m/s 600 mmHg 40%
    09:00 +23°C° 0 mm 4 m/s 601 mmHg 33%
    10:00 +26°C° 0 mm 3 m/s 601 mmHg 27%
    11:00 +29°C° 0 mm 3 m/s 601 mmHg 21%
    12:00 +29°C° 0 mm 3 m/s 601 mmHg 20%
    13:00 +30°C° 0 mm 3 m/s 600 mmHg 19%
    14:00 +30°C° 0 mm 3 m/s 600 mmHg 18%
    15:00 +29°C° 0 mm 3 m/s 599 mmHg 22%
    16:00 +28°C° 0 mm 2 m/s 599 mmHg 25%
    17:00 +26°C° 0 mm 2 m/s 598 mmHg 29%
    18:00 +24°C° 0 mm 2 m/s 598 mmHg 35%
    19:00 +22°C° 0 mm 1 m/s 598 mmHg 41%
    20:00 +20°C° 0 mm 1 m/s 598 mmHg 47%
    21:00 +19°C° 0 mm 2 m/s 598 mmHg 47%
    22:00 +18°C° 0 mm 2 m/s 598 mmHg 47%
    23:00 +17°C° 0 mm 2 m/s 598 mmHg 46%

    28 Janvier, Lundi

    Heure Température Précipitation Vent Pression Humidité
    00:00 +16°C° 0 mm 3 m/s 597 mmHg 52%
    01:00 +16°C° 0 mm 3 m/s 597 mmHg 58%
    02:00 +16°C° 0 mm 3 m/s 596 mmHg 64%
    03:00 +15°C° 0 mm 4 m/s 597 mmHg 64%
    04:00 +14°C° 0 mm 4 m/s 597 mmHg 64%
    05:00 +14°C° 0 mm 4 m/s 597 mmHg 63%
    06:00 +17°C° 0 mm 4 m/s 598 mmHg 56%
    07:00 +19°C° 0 mm 4 m/s 599 mmHg 49%
    08:00 +21°C° 0 mm 5 m/s 600 mmHg 42%
    09:00 +23°C° 0 mm 4 m/s 600 mmHg 35%
    10:00 +26°C° 0 mm 4 m/s 601 mmHg 28%
    11:00 +28°C° 0 mm 4 m/s 601 mmHg 21%
    12:00 +29°C° 0 mm 4 m/s 601 mmHg 19%
    13:00 +30°C° 0 mm 4 m/s 600 mmHg 18%
    14:00 +30°C° 0 mm 4 m/s 600 mmHg 16%
    15:00 +29°C° 0 mm 4 m/s 599 mmHg 18%
    16:00 +28°C° 0 mm 4 m/s 599 mmHg 20%
    17:00 +27°C° 0 mm 4 m/s 598 mmHg 22%
    18:00 +24°C° 0 mm 3 m/s 598 mmHg 30%
    19:00 +20°C° 0 mm 2 m/s 597 mmHg 37%
    20:00 +17°C° 0 mm 2 m/s 597 mmHg 45%
    21:00 +16°C° 0 mm 2 m/s 597 mmHg 47%
    22:00 +16°C° 0 mm 2 m/s 597 mmHg 50%
    23:00 +15°C° 0 mm 2 m/s 597 mmHg 52%
    Voir plus